Lid_Strength_Index
11 11 11 12 12 12 13 12 15 14 14 11 12 12 11 8 7 6 6 6 5 5 5 4 3 3 3 3 3 2 3 3 3 3 3 3 4 5 5 4 4 3 3 3
13 11 11 12 12 11 12 12 12 12 13 8 8 9 11 7 7 7 6 6 5 5 4 4 3 3 3 3 2 2 3 3 3 3 4 4 5 5 5 4 4 4 4 4
16 11 12 16 12 12 11 11 12 14 11 9 9 10 11 9 8 7 7 7 5 5 4 4 3 3 3 3 2 2 3 4 4 4 4 4 4 5 6 5 5 5 4 5
15 13 20 12 9 9 10 10 10 10 10 9 8 9 8 8 8 8 7 8 7 5 4 3 3 3 3 3 3 3 3 4 3 4 4 5 5 6 6 6 6 6 6 6
16 16 13 12 10 10 11 11 8 9 10 8 8 8 9 7 7 7 7 6 7 6 5 3 3 3 3 3 3 3 4 4 4 4 5 6 6 6 6 6 7 7 6 6
15 18 19 12 8 7 7 13 7 7 9 9 9 12 10 8 7 7 7 6 6 5 4 4 3 3 3 3 3 4 4 4 4 5 6 6 6 6 5 6 6 6 6 5
15 16 14 9 7 6 15 13 7 7 7 8 10 9 8 7 7 7 6 7 5 3 3 3 3 3 4 4 4 3 4 5 5 5 6 6 6 6 5 6 6 6 7 6
14 17 17 7 8 12 9 6 6 6 7 7 8 8 7 7 7 7 6 5 4 4 4 3 3 3 4 4 3 4 4 5 5 5 5 5 6 6 5 6 6 7 7 8
13 12 7 6 7 6 6 6 6 6 5 6 8 9 8 8 8 8 6 6 4 4 4 4 3 3 4 4 4 5 5 6 6 5 5 5 6 6 6 6 7 8 8 9
10 8 7 6 5 5 5 5 5 5 5 6 7 8 9 10 9 8 7 6 5 4 4 4 4 3 4 4 5 5 6 6 5 5 5 5 5 5 6 8 9 8 9 10
10 8 7 6 5 5 5 5 4 4 4 5 6 7 8 9 10 8 8 7 6 4 5 4 4 3 4 4 5 6 6 6 6 5 6 5 6 6 7 8 8 10 10 9
11 7 8 7 5 4 5 5 5 5 5 4 6 6 7 9 9 9 9 7 7 6 4 4 4 4 4 5 5 6 6 6 5 5 6 7 10 10 6 6 6 6 6 8
8 7 7 6 6 5 5 4 4 5 5 5 5 6 7 8 9 8 8 8 7 7 4 4 4 4 4 4 5 6 6 6 5 5 7 9 10 11 11 8 6 6 5 6
5 6 7 6 7 6 5 5 3 5 5 5 5 5 6 7 8 9 9 8 7 7 5 4 4 4 4 4 5 6 5 5 5 5 7 8 9 10 11 11 11 10 7 7
6 5 5 5 4 5 5 6 6 6 6 6 5 5 5 6 7 8 8 8 7 7 6 4 5 4 3 4 5 6 5 5 5 6 7 8 9 10 11 11 11 10 9 7
6 5 5 6 5 5 5 5 6 6 6 6 5 5 5 5 5 6 8 8 8 8 6 5 4 4 3 4 5 5 6 5 5 6 7 8 9 10 11 11 10 10 10 9
7 7 6 7 6 5 5 4 5 5 5 5 5 5 5 5 5 6 7 8 8 7 6 5 4 3 4 4 5 5 6 5 5 6 7 8 9 10 11 11 11 10 9 8
5 5 5 5 5 5 4 4 4 4 4 4 4 4 5 5 6 6 6 8 7 6 6 5 3 3 3 3 5 5 5 5 6 7 7 9 9 10 11 11 11 10 9 7
5 5 4 4 5 5 5 4 4 3 3 3 4 5 4 5 5 5 6 8 8 6 6 4 4 4 3 3 4 5 5 5 6 7 7 8 9 9 10 11 11 10 9 8
5 4 4 4 4 5 5 3 3 3 3 3 3 4 4 4 4 5 5 8 7 6 4 4 3 3 3 4 5 5 5 5 6 7 8 9 9 10 10 10 9 9 8 8
4 4 5 5 5 4 4 3 3 4 3 3 3 4 4 4 4 5 6 7 6 4 3 4 2 3 3 3 5 5 5 5 6 7 8 9 9 9 10 10 8 8 8 8
5 5 5 5 6 6 5 5 4 4 4 4 3 3 3 4 4 5 5 5 4 4 3 3 2 3 3 5 4 5 5 5 5 6 7 8 9 9 10 9 9 8 8 8
6 5 5 5 6 6 6 5 5 5 4 4 4 4 4 4 4 5 6 3 3 3 3 2 2 3 4 4 4 5 5 5 5 6 7 7 8 9 9 9 9 8 9 8
5 5 5 5 6 6 6 5 4 4 4 4 4 4 4 5 4 3 3 3 3 4 4 2 3 3 4 4 4 5 4 4 5 6 7 7 8 8 9 8 9 9 8 8
5 6 5 6 7 7 5 5 5 5 5 4 5 4 3 3 3 3 3 3 4 5 3 3 3 4 3 4 4 5 4 4 5 6 6 7 7 8 9 8 8 8 8 8
6 6 6 6 7 6 5 5 6 5 5 5 4 3 4 4 3 3 3 3 4 4 3 3 3 4 3 4 5 5 4 4 6 6 6 7 7 8 8 8 8 8 8 7
6 4 6 6 5 5 5 6 6 6 6 5 6 5 4 4 3 2 3 3 3 3 2 3 4 4 4 5 5 5 4 5 6 6 6 7 7 7 8 8 8 8 8 7